KROZINGEN Weather Reports


time (UTC)temp
F
wind
direction
speed
knots
gust
knots
rain 1hr
in
rain 24hr
in
rain mn
in
humidity
%
barometer
mb
20260506163210 52 172 7.8 0.0 0.00 0.00 0.10 91 1009.5
20260506160210 52 212 4.3 0.0 0.00 0.00 0.07 90 1009.4
20260506153210 52 255 5.2 0.0 0.00 0.00 0.04 87 1009.2
20260506150210 53 208 9.6 0.0 0.00 0.00 0.02 83 1009.0
20260506143210 54 226 8.7 0.0 0.00 0.00 0.02 84 1008.9
20260506140210 54 134 9.6 0.0 0.00 0.00 0.02 85 1008.8
20260506133211 55 207 8.7 0.0 0.00 0.00 0.02 87 1008.7
20260506130211 56 284 10.4 0.0 0.00 0.00 0.01 84 1008.4
20260506123210 57 162 13.0 0.0 0.00 0.00 0.01 87 1008.0
20260506120210 58 237 7.8 0.0 0.00 0.00 0.00 86 1007.7
20260506113217 58 309 13.9 0.0 0.00 0.00 0.00 82 1007.6
20260506110210 59 270 4.3 0.0 0.00 0.00 0.00 81 1007.6
20260506100213 59 234 7.8 0.0 0.00 0.00 0.00 77 1007.2
20260506093211 59 216 5.2 0.0 0.00 0.00 0.00 74 1007.1
20260506090211 61 193 7.0 0.0 0.00 0.00 0.00 72 1007.0
20260506083211 61 225 5.2 0.0 0.00 0.00 0.00 73 1006.7
20260506080212 59 189 5.2 0.0 0.00 0.00 0.00 75 1006.9
20260506073211 58 102 4.3 0.0 0.00 0.00 0.00 77 1006.9
20260506070212 59 224 4.3 0.0 0.00 0.00 0.00 76 1006.9
20260506060210 56 172 2.6 0.0 0.00 0.00 0.00 81 1007.0
20260506050211 53 136 1.7 0.0 0.00 0.00 0.00 85 1007.1
20260506043211 53 227 3.5 0.0 0.00 0.00 0.00 85 1007.3
20260506040211 53 253 3.5 0.0 0.00 0.00 0.00 85 1007.5
20260506033211 52 152 2.6 0.0 0.00 0.00 0.00 86 1007.6
20260506030212 51 132 1.7 0.0 0.00 0.00 0.00 89 1007.7
20260506023211 52 211 0.9 0.0 0.00 0.00 0.00 86 1008.0
20260506020212 53 226 1.7 0.0 0.00 0.00 0.00 84 1008.1
20260506013211 53 204 0.9 0.0 0.00 0.00 0.00 86 1008.6
20260506010212 52 228 0.9 0.0 0.00 0.00 0.00 87 1008.4
20260506003209 52 224 0.0 0.0 0.00 0.00 0.00 88 1008.5
20260506000211 53 203 1.7 0.0 0.00 0.00 0.00 86 1008.9
20260505233209 54 229 0.9 0.0 0.00 0.00 0.00 85 1009.0
20260505230209 54 128 0.9 0.0 0.00 0.00 0.00 85 1009.1
20260505223210 54 131 1.7 0.0 0.00 0.00 0.00 86 1009.3
20260505220209 54 235 1.7 0.0 0.00 0.00 0.13 86 1009.5
20260505213211 54 228 0.9 0.0 0.00 0.00 0.13 86 1009.3
20260505210215 55 140 1.7 0.0 0.00 0.00 0.13 86 1009.5
20260505203209 56 143 4.3 0.0 0.00 0.00 0.13 86 1009.5
20260505200210 56 127 0.9 0.0 0.00 0.00 0.13 88 1009.2
20260505193209 57 139 1.7 0.0 0.00 0.00 0.13 86 1009.0
20260505190215 58 207 2.6 0.0 0.00 0.00 0.13 83 1008.8
20260505183212 59 143 2.6 0.0 0.00 0.00 0.13 85 1008.3
20260505180211 61 191 7.8 0.0 0.00 0.00 0.13 81 1008.4
20260505173210 64 127 3.5 0.0 0.00 0.00 0.13 73 1008.2
20260505170210 66 226 7.0 0.0 0.00 0.00 0.13 69 1008.1